Volver al catálogo

SL-16 DEB

ActivoLEO
NORAD 25409·DEBRIS·🇷🇺 Russia

Lanzado Jul 28, 1998 desde Baikonur Cosmodrome

Loading…

Próximos Pases (próximas 24 horas)

TLE

ActualizadoSource: Space-Track

Época: Sep 14, 2026, 03:57 UTC

1 25409U 98045C   26257.16521591  .00000092  00000-0  12223-3 0  9992
2 25409  71.0794 209.1051 0190128  99.4893 275.9778 13.75232499411120

Sigue SL-16 DEB en tiempo real con AllMySat

Download on the App Store